Location: ???????
(55.5931°N, 39.3286°E)
Time: 02:43:52
(UTC+00:00)

Gbstr 26 Del rocket - Pass Details

Date: 14 April 2024
Orbit: 491 x 1240 km, 51.8° (Epoch: 18 May)

Event Time Altitude Azimuth Distance (km) Brightness Sun altitude
Exits shadow 00:31:28 21° 204° (SSW) 1,264 4.1 -14.0°
Maximum altitude 00:33:19 31° 159° (SSE) 945 3.8 -13.9°
Drops below altitude 10° 00:36:44 10° 96° (E) 1,719 6.0 -13.5°
Sets 00:38:59 0° 85° (E) 2,577 7.2 -13.2°
